Regional Weather Roundup
Issued by NWS

Home | Current Version | Previous Version | Graphics & Text | Print | Product List | Glossary On
Versions: 1 2 3 4 5 6 7 8 9 10 11 12 13 14 15 16 17 18 19 20 21 22 23 24 25 26 27 28 29 30 31 32 33 34 35 36 37 38 39 40 41 42 43 44 45 46 47 48 49 50
000
ASUS45 KABQ 200710
RWRNM
WEATHER ROUNDUP FOR NEW MEXICO
NATIONAL WEATHER SERVICE ALBUQUERQUE NM
100 AM MDT SUN APR 20 2014

NOTE: "FAIR" MEANS FEW OR NO CLOUDS BELOW 12,000 FEET AGL WITH NO
       SIGNIFICANT WEATHER OR OBSTRUCTIONS TO VISION.

      THIS PRODUCT IS RELEASED AS TWO VERSIONS.  ONE VERSION NEAR
      THE TOP OF THE HOUR CONTAINING PRELIMINARY DATA FROM ALBUQUERQUE
      AND OTHER STATIONS.  A FINAL VERSION WITH ADDITIONAL DATA IS
      ISSUED ABOUT 10 MINUTES AFTER THE HOUR.

NMZ501-503-504-510>518-200800-
NORTHWEST PLATEAU/NORTHCENTRAL MOUNTAINS

CITY           SKY/WX    TMP DP  RH WIND       PRES   REMARKS
FARMINGTON     CLEAR     52  34  50 VRB5      30.08S
LOS ALAMOS     CLOUDY    48  38  70 S6G22     30.17S
SANTA FE       LGT RAIN  47  44  90 SW6       30.15R
TAOS           CLOUDY    45  37  76 SE6       30.18R
ANGEL FIRE     DRIZZLE   42  38  89 CALM      30.20S

$$
NMZ402-403-502-505>509-200800-
WESTCENTRAL MOUNTAINS/SOUTHWEST MOUNTAINS

CITY           SKY/WX    TMP DP  RH WIND       PRES   REMARKS
GALLUP         CLOUDY    45  38  76 CALM      30.19S
GRANTS         CLOUDY    41  34  76 CALM      30.20R
SILVER CITY    MOCLDY    48  41  76 N8        30.17S

$$
NMZ407-409-411-412-200800-
SOUTHERN DESERTS

CITY           SKY/WX    TMP DP  RH WIND       PRES   REMARKS
LORDSBURG      FAIR      52  46  82 W7        30.12S
DEMING         MOCLDY    48  45  89 E6        30.12R
LAS CRUCES     MOCLDY    46  40  78 CALM      30.13F
HOLLOMAN AFB   PTCLDY    50  50 100 CALM      30.12S
ALAMOGORDO     PTCLDY    46  46 100 S3        30.13F
T OR C         CLOUDY    52  48  86 SE5       30.12S

$$
NMZ519>523-200800-
CENTRAL VALLEYS/CENTRAL HIGHLANDS

CITY           SKY/WX    TMP DP  RH WIND       PRES   REMARKS
ALBUQUERQUE    CLOUDY    52  45  77 SE3       30.14S
DOUBLE EAGLE   CLOUDY    49  45  85 W7        30.16R
MORIARTY ARPT  CLOUDY    47  44  89 CALM      30.15S
CLINES CORNERS CLOUDY    43  39  86 W10       30.13F
BELEN          CLOUDY    50  48  93 SW5       30.14S
SOCORRO        FAIR      52  47  83 SW5       30.13S

$$
NMZ524>526-539-540-200800-
SOUTHCENTRAL MOUNTAINS

CITY           SKY/WX    TMP DP  RH WIND       PRES   REMARKS
RUIDOSO        PTCLDY    41  39  93 N3        30.18S

$$
NMZ527>531-200800-
NORTHEAST HIGHLANDS/NORTHEAST PLAINS

CITY           SKY/WX    TMP DP  RH WIND       PRES   REMARKS
LAS VEGAS      CLOUDY    43  41  93 W6        30.11F
RATON          LGT RAIN  50  44  80 CALM      30.10R
CLAYTON        MOCLDY    50  44  80 SW7       30.06F

$$
NMZ532>537-200800-
EASTCENTRAL PLAINS

CITY           SKY/WX    TMP DP  RH WIND       PRES   REMARKS
TUCUMCARI      MOCLDY    55  50  83 SW7       30.04S
CANNON AFB     CLEAR     52  48  87 S10       30.09R
CLOVIS AIRPORT CLEAR     48  45  87 SW7       30.12R

$$
NMZ028-029-538-200800-
SOUTHEAST PLAINS

CITY           SKY/WX    TMP DP  RH WIND       PRES   REMARKS
ROSWELL        CLEAR     50  47  89 S9        30.07R
ARTESIA        CLEAR     50  50 100 S10       30.08F
CARLSBAD       CLEAR     57  54  89 S8        30.08F
HOBBS          PTCLDY    54  54 100 S9        30.11F


$$



USA.gov is the U.S. government's official web portal to all federal, state and local government web resources and services.